Location: ??????
(38.0677°N, 22.9870°E)
Time: 15:39:31
(UTC+00:00)

CZ-2C R/B - Pass Details

Date: 10 August 2024
Orbit: 666 x 777 km, 98.4° (Epoch: 09 September)

Event Time Altitude Azimuth Distance (km) Brightness Sun altitude
Rises 02:06:44 0° 12° (NNE) 3,263 6.5 -16.8°
Reaches altitude 10° 02:09:03 10° 12° (NNE) 2,335 5.7 -16.4°
Maximum altitude 02:14:14 87° 283° (WNW) 783 2.5 -15.6°
Enters shadow 02:18:41 14° 196° (SSW) 2,045 4.3 -14.9°
